Location: Corte Bragagnani
(45.3000°N, 11.1000°E)
Time: 23:40:37
(UTC+00:00)

USA 32 - Pass Details

Date: 09 April 2020
Orbit: 777 x 783 km, 85.0° (Epoch: 03 June)

Event Time Altitude Azimuth Distance (km) Brightness Sun altitude
Rises 20:18:38 0° 357° (N) 3,272 7.9 -23.4°
Reaches altitude 10° 20:21:01 10° 0° (N) 2,340 7.0 -23.7°
Maximum altitude 20:26:14 65° 83° (E) 856 4.0 -24.4°
Enters shadow 20:26:24 64° 95° (E) 859 3.9 -24.4°
